Indianapolis, IN

10:21 PM EDT on September 24, 2016 (GMT -0400)
Indianapolis International

Weather History for KIND - January, 2014

Change the Weather History Date:

Sunday, January 26, 2014

  Actual Average Record
Temperature  
Mean Temperature 23 °F 28 °F  
Max Temperature 41 °F 36 °F 67 °F (1944)
Min Temperature 5 °F 20 °F -12 °F (1897)
Degree Days  
Heating Degree Days 42 37  
Month to date heating degree days 1146 962  
Since 1 July heating degree days 3369 3038  
Cooling Degree Days 0 0  
Month to date cooling degree days 0 0  
Year to date cooling degree days 0 0  
Moisture  
Dew Point 15 °F    
Average Humidity 63    
Maximum Humidity 76    
Minimum Humidity 49    
Precipitation  
Precipitation T in 0.08 in 1.41 in (1954)
Month to date precipitation 2.33 2.26  
Year to date precipitation 2.33 2.26  
Snow  
Snow T in 0.30 in 10.30 in (1978)
Month to date snowfall 26.9 7.2  
Since 1 July snowfall 35.8 15.2  
Snow Depth 3.00 in    
Sea Level Pressure  
Sea Level Pressure 29.66 in    
Wind  
Wind Speed 14 mph (SW)    
Max Wind Speed 39 mph    
Max Gust Speed 52 mph    
Visibility 9 miles    
Events Snow    
T = Trace of Precipitation, MM = Missing Value Source: NWS Daily Summary

Daily Weather History Graph

Daily Weather History Graph

Search for Another Location

Airport or City:

Trip Planner

Search our weather history database for the weather conditions in past years. The results will help you decide how hot, cold, wet, or windy it might be!

Date:

Astronomy

Jan. 26, 2014 Rise Set
Actual Time 7:58 AM EST 5:57 PM EST
Civil Twilight 7:29 AM EST 6:26 PM EST
Nautical Twilight 6:56 AM EST 6:59 PM EST
Astronomical Twilight 6:24 AM EST 7:31 PM EST
Moon 3:34 AM EST (1/26) 1:46 PM EST (1/26)
Length of Visible Light 10h 57m
Length of Day
9h 59m
Waning Crescent, 24% of the Moon is Illuminated
Jan 26
Waning Crescent
Jan 30
New
Feb 6
First Quarter
Feb 14
Full
Feb 22
Last Quarter

Hourly Weather History & Observations

Time (EST) Temp. Windchill Dew Point Humidity Pressure Visibility Wind Dir Wind Speed Gust Speed Precip Events Conditions
12:54 AM 5.0 °F -8.1 °F -4.0 °F 66% 29.92 in 10.0 mi SW 8.1 mph - N/A   Clear
1:54 AM 9.0 °F -3.2 °F -2.0 °F 61% 29.91 in 10.0 mi SW 8.1 mph - N/A   Overcast
2:54 AM 10.0 °F -0.9 °F -0.0 °F 64% 29.89 in 10.0 mi SSW 6.9 mph - N/A   Overcast
3:54 AM 12.0 °F -1.3 °F -0.0 °F 59% 29.83 in 10.0 mi South 10.4 mph - N/A   Overcast
4:54 AM 12.9 °F -0.9 °F -0.0 °F 56% 29.78 in 10.0 mi South 11.5 mph - N/A   Overcast
5:54 AM 12.9 °F -0.2 °F -0.0 °F 56% 29.72 in 10.0 mi South 10.4 mph - N/A   Overcast
6:54 AM 14.0 °F 0.5 °F -0.0 °F 54% 29.65 in 10.0 mi SSE 11.5 mph - N/A   Overcast
7:54 AM 16.0 °F 4.4 °F 1.0 °F 52% 29.65 in 9.0 mi South 9.2 mph - 0.00 in Snow Light Snow
8:54 AM 18.0 °F 6.9 °F 3.9 °F 54% 29.65 in 9.0 mi South 9.2 mph - 0.00 in   Overcast
9:54 AM 21.0 °F 7.6 °F 7.0 °F 55% 29.61 in 10.0 mi SSW 15.0 mph - 0.00 in   Overcast
10:54 AM 26.1 °F 13.1 °F 10.0 °F 51% 29.59 in 10.0 mi SSW 17.3 mph - N/A   Overcast
11:54 AM 32.0 °F 19.8 °F 15.1 °F 50% 29.57 in 10.0 mi SW 20.7 mph 28.8 mph N/A   Overcast
12:54 PM 36.0 °F 24.7 °F 19.9 °F 52% 29.57 in 10.0 mi WSW 21.9 mph 29.9 mph N/A   Overcast
1:54 PM 37.0 °F 27.7 °F 24.1 °F 59% 29.56 in 10.0 mi WSW 16.1 mph - N/A   Overcast
2:54 PM 37.9 °F 27.9 °F 26.1 °F 62% 29.55 in 10.0 mi WSW 19.6 mph - N/A   Overcast
3:54 PM 39.0 °F 29.3 °F 27.0 °F 62% 29.55 in 10.0 mi WSW 19.6 mph 26.5 mph N/A   Overcast
4:54 PM 39.9 °F 31.4 °F 28.0 °F 63% 29.57 in 10.0 mi West 16.1 mph - N/A   Mostly Cloudy
5:54 PM 37.0 °F 31.0 °F 28.9 °F 73% 29.59 in 10.0 mi WSW 8.1 mph - N/A   Mostly Cloudy
6:54 PM 37.0 °F 31.0 °F 28.9 °F 73% 29.61 in 10.0 mi SW 8.1 mph - N/A   Overcast
7:54 PM 36.0 °F 28.5 °F 28.9 °F 76% 29.60 in 10.0 mi SW 10.4 mph - N/A   Mostly Cloudy
8:54 PM 37.9 °F 29.6 °F 30.0 °F 73% 29.57 in 10.0 mi SSW 13.8 mph - N/A   Overcast
9:54 PM 39.0 °F 31.8 °F 28.9 °F 67% 29.56 in 10.0 mi SW 11.5 mph - N/A   Overcast
10:54 PM 41.0 °F 31.9 °F 28.9 °F 62% 29.56 in 10.0 mi WSW 19.6 mph - N/A   Overcast
11:27 PM 33.8 °F 20.1 °F 26.6 °F 75% 29.63 in 5.0 mi NW 29.9 mph 51.8 mph 0.00 in Snow Light Snow
11:44 PM 28.4 °F 11.2 °F 23.0 °F 80% 29.66 in 4.0 mi NW 38.0 mph 48.3 mph 0.00 in Snow Light Snow
11:50 PM 28.4 °F 12.7 °F 23.0 °F 80% 29.67 in 4.0 mi NW 29.9 mph 48.3 mph 0.00 in Snow Light Snow
11:54 PM 28.9 °F 13.0 °F 23.0 °F 78% 29.70 in 3.0 mi NW 32.2 mph 44.9 mph 0.00 in Snow Light Snow